[[{"header":{"parameterUnit":"m.s-1","parameterCategory":1,"la1":30.2991,"la2":30.254,"lo1":-89.0895,"lo2":-89.0444,"dy":0.0017,"dx":0.0017,"nx":28,"ny":28,"refTime":"2023-11-07T09:00:00:Z","depth":0,"parameterNumber":2,"parameterNumberName":"U-component_of_WINDS"},"data":[0,0,0,0,0,0,0,0,0,0,0,0,0,0,0,0,0,0,0,0,0,0,0,0,0,0,0,0,0,0,0,0,0,0,0,0,0,0,0,0,0,0,0,0,0,0,0,0,0,0,0,0,0,0,0,0,0,0,-0.4925,-0.4924,0,-0.4841,-0.484,-0.4839,-0.4826,-0.4827,-0.4828,-0.4828,-0.4741,-0.4738,-0.4735,0,0,0,0,0,0,0,0,0,0,0,0,0,-0.5071,-0.5068,-0.4925,-0.4924,-0.4923,-0.4841,-0.484,-0.4839,-0.4826,-0.4827,-0.4828,-0.4829,-0.4742,-0.4739,-0.4735,0,0,0,0,0,0,0,0,0,0,0,0,0,-0.4999,-0.5067,-0.4925,-0.4906,-0.4904,-0.4842,-0.484,-0.4839,-0.4826,-0.4827,-0.4828,-0.4829,-0.4744,-0.4739,-0.4735,-0.4685,0,0,-0.4721,-0.4719,0,0,0,0,0,0,0,0,-0.5003,-0.4994,-0.491,-0.4907,-0.4905,-0.4845,-0.486,-0.4787,-0.4826,-0.4855,-0.4828,-0.483,-0.4775,-0.4768,-0.475,-0.4681,-0.4677,-0.4721,-0.4718,-0.4716,-0.4715,0,0,0,0,0,0,0,-0.5008,-0.4997,-0.4892,-0.4909,-0.4905,-0.4902,-0.4893,-0.4846,-0.481,-0.4853,-0.4852,-0.4842,-0.4774,-0.4754,-0.4748,-0.4676,-0.4721,-0.4717,-0.4714,-0.4712,-0.4561,-0.4559,0,0,0,0,0,0,-0.5017,-0.5002,-0.4894,-0.4889,-0.4958,-0.4898,-0.4888,-0.4863,-0.481,-0.4803,-0.4841,-0.4842,-0.4761,-0.4753,-0.4745,-0.4682,-0.4716,-0.4712,-0.4709,-0.4562,-0.456,-0.4559,0,0,0,0,0,0,-0.502,-0.5007,-0.4898,-0.4945,-0.4931,-0.4894,-0.4866,-0.4861,-0.4841,-0.4802,-0.4795,-0.4828,-0.4762,-0.4751,-0.47,-0.4678,-0.471,-0.4706,-0.4563,-0.4561,-0.456,-0.4556,0,0,0,0,0,0,-0.5024,-0.5009,-0.499,-0.4945,-0.4928,-0.4854,-0.4865,-0.4859,-0.4834,-0.4834,-0.4788,-0.4781,-0.4762,-0.4706,-0.4695,-0.4673,-0.4702,-0.4565,-0.4562,-0.456,-0.4558,-0.4554,-0.4551,0,0,0,0,0,-0.5029,-0.4992,-0.4989,-0.4976,-0.4904,-0.4853,-0.4844,-0.4823,-0.4832,-0.4812,-0.4787,-0.4782,-0.4683,-0.4701,-0.4688,-0.4664,-0.4566,-0.4563,-0.456,-0.4559,-0.4555,-0.4551,0,0,0,0,0,0,-0.5034,-0.4985,-0.4981,-0.4928,-0.4895,-0.4851,-0.4826,-0.4819,-0.4782,-0.4784,-0.4759,-0.4749,-0.4699,-0.4677,-0.4698,-0.4613,-0.4625,-0.462,-0.4629,-0.4624,-0.4621,-0.4627,-0.4698,0,0,0,0,0,-0.5029,-0.4993,-0.4952,-0.4909,-0.4893,-0.4862,-0.4839,-0.4826,-0.4791,-0.4777,-0.4747,-0.4712,-0.4673,-0.4648,-0.461,-0.4555,-0.4544,-0.4532,-0.4529,-0.4527,-0.4521,-0.449,-0.4484,-0.4549,-0.4549,-0.4549,0,0,-0.5018,-0.4987,-0.4966,-0.4909,-0.4882,-0.4844,-0.485,-0.481,-0.4781,-0.477,-0.472,-0.4697,-0.4657,-0.4604,-0.4579,-0.4583,-0.4501,-0.4523,-0.4521,-0.4517,-0.4486,-0.448,-0.4475,-0.4547,-0.4547,-0.4548,0,0,-0.4979,-0.4952,-0.4913,-0.4885,-0.4844,-0.4824,-0.4815,-0.4772,-0.4757,-0.4706,-0.4697,-0.4662,-0.4596,-0.4567,-0.4544,-0.4494,-0.4487,-0.4482,-0.4463,-0.4433,-0.4428,-0.4423,-0.4404,-0.4398,-0.4477,-0.4477,-0.4477,0,-0.497,-0.4913,-0.4893,-0.4853,-0.4828,-0.4817,-0.4777,-0.4751,-0.47,-0.4682,-0.4689,-0.4605,-0.4577,-0.4516,-0.4504,-0.4486,-0.4474,-0.4486,-0.4431,-0.4426,-0.4421,-0.4402,-0.4395,-0.4477,-0.4477,-0.4477,-0.4477,0,-0.4903,-0.4864,-0.4837,-0.4788,-0.476,-0.472,-0.4694,-0.4668,-0.4658,-0.4637,-0.4585,-0.4552,-0.4506,-0.4491,-0.4481,-0.4429,-0.4433,-0.4436,-0.4447,-0.4414,-0.4397,-0.4389,-0.4476,-0.4476,-0.4476,-0.4476,0,0,-0.4863,-0.4804,-0.4794,-0.4772,-0.4726,-0.4695,-0.4654,-0.461,-0.4588,-0.4553,-0.4518,-0.4462,-0.4464,-0.4437,-0.4424,-0.4397,-0.4359,-0.4403,-0.4402,-0.4395,-0.4298,-0.4295,-0.4288,-0.4355,-0.4354,-0.4353,-0.4301,0,-0.4817,-0.4744,-0.4726,-0.4664,-0.4626,-0.4616,-0.458,-0.4548,-0.4528,-0.4493,-0.447,-0.4431,-0.4437,-0.4421,-0.4394,-0.4369,-0.4339,-0.4373,-0.4321,-0.4319,-0.433,-0.4279,-0.4276,-0.4228,-0.4294,-0.4293,-0.4292,0,-0.4753,-0.4717,-0.4651,-0.461,-0.4594,-0.4562,-0.452,-0.4488,-0.4451,-0.4438,-0.4408,-0.4397,-0.4354,-0.4369,-0.4309,-0.4332,-0.431,-0.4295,-0.4292,-0.4285,-0.4302,-0.4269,-0.4213,-0.4206,-0.4281,-0.4282,-0.4283,0,-0.4729,-0.4664,-0.4616,-0.4597,-0.4548,-0.4526,-0.4504,-0.4469,-0.4443,-0.4407,-0.439,-0.4349,-0.4326,-0.4294,-0.4272,-0.4285,-0.4213,-0.4226,-0.42,-0.42,-0.4183,-0.4184,-0.4122,-0.4172,-0.4172,-0.4172,-0.4172,0,-0.4678,-0.4638,-0.4604,-0.4575,-0.4529,-0.4508,-0.4464,-0.4442,-0.441,-0.4376,-0.4365,-0.4332,-0.4306,-0.427,-0.4252,-0.4204,-0.4194,-0.4182,-0.4177,-0.4182,-0.4183,-0.4166,-0.4168,-0.417,-0.4171,-0.4171,-0.4171,0,-0.4642,-0.4618,-0.4565,-0.4523,-0.4512,-0.448,-0.4444,-0.4415,-0.4394,-0.4351,-0.4339,-0.4307,-0.4264,-0.424,-0.4186,-0.4174,-0.412,-0.4118,-0.4132,-0.413,-0.4104,-0.4107,-0.4027,-0.4015,-0.4075,-0.4074,-0.4074,0,-0.4611,-0.458,-0.4535,-0.4511,-0.4489,-0.4451,-0.4425,-0.4404,-0.4377,-0.4333,-0.4308,-0.4265,-0.4229,-0.4161,-0.4132,-0.4091,-0.4087,-0.4062,-0.408,-0.4086,-0.4085,-0.4086,-0.4082,-0.4058,-0.4058,-0.4057,-0.4057,0,-0.4557,-0.4547,-0.451,-0.4469,-0.4439,-0.4406,-0.4373,-0.4354,-0.4326,-0.4297,-0.4253,-0.4225,-0.417,-0.4127,-0.4083,-0.4061,-0.4053,-0.4051,-0.4043,-0.4046,-0.4056,-0.4049,-0.4122,-0.4053,-0.4053,-0.4054,-0.4054,-0.4054,-0.4521,-0.4493,-0.4457,-0.4416,-0.4389,-0.4359,-0.4329,-0.4305,-0.4268,-0.4222,-0.4211,-0.4165,-0.4129,-0.4069,-0.4045,-0.4009,-0.4013,-0.4001,-0.3997,-0.3994,-0.3993,-0.4063,-0.4001,-0.4001,-0.4001,-0.4001,-0.4001,0,-0.4466,-0.4442,-0.4405,-0.4359,-0.4328,-0.4325,-0.4288,-0.4261,-0.4221,-0.4188,-0.4153,-0.4102,-0.406,-0.4029,-0.3986,-0.3962,-0.3958,-0.3951,-0.3952,-0.3947,-0.3992,-0.4003,-0.3956,-0.3956,-0.3956,-0.3956,-0.3956,-0.3956,-0.4433,-0.4385,-0.437,-0.4308,-0.4285,-0.4239,-0.4218,-0.419,-0.4163,-0.4107,-0.4073,-0.4053,-0.402,-0.3975,-0.3936,-0.3928,-0.3912,-0.3905,-0.3897,-0.3939,-0.3944,-0.3948,-0.3959,-0.3902,-0.3902,-0.3854,-0.3854,-0.3853]},{"header":{"parameterUnit":"m.s-1","parameterCategory":1,"la1":30.2991,"la2":30.254,"lo1":-89.0895,"lo2":-89.0444,"dy":0.0017,"dx":0.0017,"nx":28,"ny":28,"refTime":"2023-11-07T09:00:00:Z","depth":0,"parameterNumber":3,"parameterNumberName":"V-component_of_WINDS"},"data":[0,0,0,0,0,0,0,0,0,0,0,0,0,0,0,0,0,0,0,0,0,0,0,0,0,0,0,0,0,0,0,0,0,0,0,0,0,0,0,0,0,0,0,0,0,0,0,0,0,0,0,0,0,0,0,0,0,0,2.4594,2.4594,0,2.4582,2.4582,2.4581,2.453,2.4529,2.4528,2.4527,2.4514,2.4515,2.4516,0,0,0,0,0,0,0,0,0,0,0,0,0,2.4575,2.4576,2.4594,2.4594,2.4594,2.4582,2.4582,2.4581,2.453,2.4529,2.4528,2.4526,2.4514,2.4515,2.4516,0,0,0,0,0,0,0,0,0,0,0,0,0,2.4575,2.4576,2.4594,2.4567,2.4565,2.4582,2.4582,2.4581,2.4531,2.4529,2.4527,2.4526,2.4514,2.4515,2.4516,2.4559,0,0,2.452,2.452,0,0,0,0,0,0,0,0,2.4575,2.4576,2.4571,2.4569,2.4566,2.4556,2.457,2.4574,2.4531,2.4544,2.4527,2.4525,2.453,2.4529,2.4531,2.4558,2.4557,2.452,2.452,2.4521,2.4521,0,0,0,0,0,0,0,2.4575,2.4576,2.4589,2.4571,2.4568,2.4556,2.4554,2.4571,2.4547,2.4542,2.4539,2.4538,2.4528,2.453,2.453,2.4557,2.452,2.4521,2.4521,2.4522,2.462,2.4621,0,0,0,0,0,0,2.4579,2.4577,2.459,2.4589,2.4566,2.4558,2.4555,2.4561,2.4546,2.4542,2.4539,2.4536,2.4529,2.4529,2.453,2.4579,2.4521,2.4522,2.4523,2.4618,2.462,2.4622,0,0,0,0,0,0,2.4579,2.4581,2.459,2.4582,2.4582,2.456,2.4566,2.4562,2.4564,2.4544,2.454,2.4546,2.4527,2.4528,2.4552,2.4578,2.4522,2.4523,2.4615,2.4618,2.4621,2.4678,0,0,0,0,0,0,2.4579,2.4581,2.4597,2.4583,2.4583,2.4613,2.4568,2.4563,2.4566,2.456,2.4549,2.4545,2.4526,2.455,2.4553,2.4578,2.4524,2.4613,2.4617,2.462,2.4674,2.4682,2.469,0,0,0,0,0,2.4578,2.4613,2.4598,2.46,2.4602,2.4614,2.4614,2.4591,2.4568,2.4584,2.4571,2.4546,2.4575,2.4553,2.4556,2.4582,2.4611,2.4616,2.462,2.467,2.4681,2.469,0,0,0,0,0,0,2.4631,2.4611,2.4593,2.4625,2.4622,2.4606,2.4625,2.4603,2.4607,2.4602,2.4573,2.4571,2.4599,2.4593,2.457,2.4623,2.4589,2.4594,2.4626,2.4636,2.4644,2.4645,2.4525,0,0,0,0,0,2.4646,2.4658,2.464,2.4669,2.4669,2.4647,2.4652,2.4634,2.463,2.4628,2.4618,2.4615,2.4623,2.4629,2.4635,2.4672,2.4669,2.4692,2.47,2.4706,2.4711,2.4731,2.4741,2.4636,2.4636,2.4636,0,0,2.4678,2.4668,2.4677,2.468,2.4675,2.4688,2.4646,2.4662,2.4671,2.4631,2.4653,2.4645,2.464,2.467,2.4683,2.4666,2.4739,2.4712,2.4717,2.4718,2.4736,2.4746,2.4755,2.4639,2.4639,2.4638,0,0,2.4742,2.4736,2.476,2.4757,2.4751,2.4736,2.4742,2.473,2.4723,2.4745,2.4715,2.4726,2.4741,2.4738,2.4739,2.4804,2.478,2.4807,2.4849,2.4868,2.4877,2.4884,2.4907,2.4916,2.4811,2.4812,2.4812,0,2.4783,2.4801,2.4776,2.4793,2.4795,2.4759,2.4784,2.4782,2.4778,2.4781,2.4761,2.4779,2.4773,2.4803,2.4819,2.4821,2.4827,2.4808,2.4878,2.4884,2.4891,2.4913,2.4922,2.4815,2.4814,2.4814,2.4814,0,2.4851,2.4864,2.4884,2.4882,2.4886,2.4907,2.4886,2.4893,2.4876,2.4864,2.4887,2.4878,2.4883,2.4889,2.4872,2.4917,2.4906,2.4883,2.4848,2.4904,2.4925,2.4933,2.4819,2.4818,2.4817,2.4816,0,0,2.4947,2.4932,2.4939,2.4938,2.4929,2.4939,2.4959,2.4963,2.4971,2.497,2.4986,2.4999,2.4978,2.4979,2.4961,2.4978,2.5031,2.4953,2.4952,2.4968,2.5081,2.5099,2.5109,2.5015,2.5017,2.5018,2.5081,0,2.5009,2.5042,2.502,2.5056,2.5069,2.5035,2.5053,2.5049,2.5039,2.5048,2.5036,2.5047,2.5017,2.5017,2.5033,2.5021,2.5053,2.5016,2.5031,2.5031,2.5033,2.5119,2.5138,2.5198,2.5089,2.509,2.5091,0,2.5085,2.5088,2.5126,2.5115,2.5119,2.5135,2.5138,2.5147,2.5143,2.5134,2.5135,2.5114,2.5133,2.5099,2.5125,2.51,2.5105,2.51,2.5102,2.5102,2.5065,2.5122,2.5216,2.5226,2.5103,2.5102,2.5102,0,2.5153,2.5166,2.519,2.519,2.5178,2.519,2.5186,2.5179,2.5184,2.5186,2.5189,2.5194,2.5196,2.5201,2.5181,2.5158,2.521,2.5174,2.5204,2.5204,2.5216,2.5216,2.5313,2.5219,2.5219,2.5219,2.5219,0,2.5224,2.5248,2.522,2.5235,2.5262,2.5237,2.5264,2.5256,2.5251,2.5264,2.5236,2.5249,2.5222,2.5232,2.5217,2.5241,2.5243,2.5237,2.5232,2.5239,2.524,2.5242,2.5237,2.5221,2.5221,2.522,2.522,0,2.5303,2.5285,2.531,2.5297,2.5294,2.5314,2.5303,2.5317,2.5304,2.5322,2.5324,2.5305,2.5316,2.5297,2.5305,2.5295,2.5329,2.5318,2.5331,2.5328,2.5358,2.5356,2.546,2.5472,2.5371,2.5372,2.5373,0,2.535,2.5368,2.5357,2.5364,2.5361,2.5372,2.5377,2.5353,2.5359,2.5356,2.5371,2.5379,2.5384,2.5404,2.5391,2.5397,2.5386,2.5422,2.5387,2.5394,2.5387,2.5387,2.5389,2.543,2.5431,2.5432,2.5433,0,2.5435,2.5425,2.5433,2.5438,2.5444,2.5446,2.5447,2.5454,2.5429,2.5438,2.5448,2.5453,2.5462,2.5471,2.5474,2.547,2.5448,2.5444,2.5451,2.5459,2.5465,2.5462,2.5351,2.5442,2.5441,2.544,2.544,2.5439,2.5499,2.5514,2.5509,2.5519,2.5517,2.5518,2.553,2.552,2.5529,2.5534,2.552,2.5534,2.553,2.5533,2.5531,2.5542,2.5526,2.5536,2.5539,2.5542,2.5547,2.5464,2.5543,2.5542,2.5542,2.5542,2.5542,0,2.5583,2.5578,2.5587,2.5589,2.5597,2.5575,2.5575,2.5583,2.5596,2.5594,2.5601,2.5614,2.5622,2.5611,2.5617,2.5629,2.5619,2.5631,2.563,2.563,2.5561,2.5554,2.5639,2.5639,2.5639,2.5639,2.5639,2.5639,2.5627,2.5651,2.5642,2.5665,2.566,2.5674,2.5676,2.5677,2.5675,2.5691,2.5698,2.5691,2.5685,2.5691,2.5699,2.5695,2.5699,2.5715,2.5708,2.5644,2.5635,2.5625,2.5619,2.5716,2.5716,2.5776,2.5777,2.5777]}]]